Total_Precipitation_Accumulation
1.50 1.43 1.36 1.25 1.18 1.21 1.30 1.48 1.73 1.67 1.33 1.05 1.01 0.99 1.00 0.98 1.07 0.99 0.89 1.08 1.14 1.14 1.16 1.19 1.16 1.14 1.24 1.38 1.54 1.79 2.00 2.07 2.03 2.06 2.14 2.16 2.23 2.39
1.41 1.38 1.32 1.25 1.22 1.24 1.29 1.36 1.50 1.64 1.50 1.12 0.95 0.91 0.93 0.93 1.04 0.93 0.87 1.06 1.07 1.07 1.05 1.03 1.04 1.07 1.13 1.25 1.34 1.49 1.73 1.90 1.89 1.88 1.95 2.03 2.13 2.25
1.33 1.31 1.27 1.22 1.22 1.21 1.24 1.29 1.34 1.42 1.42 1.11 0.93 0.90 0.95 0.94 0.98 0.93 0.87 0.84 0.83 0.94 0.93 0.92 0.92 0.97 1.06 1.15 1.21 1.29 1.47 1.62 1.75 1.82 1.91 2.01 2.06 2.07
1.23 1.27 1.26 1.27 1.32 1.33 1.34 1.33 1.30 1.27 1.28 1.17 0.97 0.87 0.84 0.79 0.78 0.81 0.83 0.82 0.77 0.89 0.89 0.87 0.90 0.94 1.02 1.05 1.08 1.14 1.23 1.32 1.45 1.57 1.65 1.76 1.89 1.99
1.11 1.17 1.21 1.26 1.34 1.36 1.34 1.30 1.24 1.19 1.18 1.17 1.03 0.90 0.86 0.81 0.79 0.78 0.78 0.78 0.75 0.83 0.87 0.86 0.87 0.89 0.93 1.01 1.05 1.04 1.06 1.12 1.19 1.30 1.41 1.49 1.58 1.73
1.07 1.10 1.12 1.13 1.14 1.14 1.14 1.12 1.12 1.13 1.13 1.15 1.09 0.97 0.90 0.86 0.88 0.91 0.87 0.78 0.74 0.69 0.75 0.76 0.78 0.79 0.80 0.85 0.91 0.93 0.94 1.01 1.10 1.20 1.34 1.40 1.43 1.55
1.13 1.11 1.05 1.03 0.98 0.96 0.96 0.95 0.96 1.04 1.13 1.17 1.12 1.00 0.89 0.87 0.86 0.82 0.86 0.84 0.79 0.70 0.68 0.65 0.64 0.63 0.65 0.72 0.81 0.92 1.00 1.12 1.25 1.35 1.46 1.58 1.65 1.71
1.01 0.96 0.93 0.93 0.90 0.93 0.93 0.92 0.97 1.09 1.20 1.19 1.06 0.90 0.73 0.69 0.76 0.86 0.96 1.01 0.93 0.69 0.67 0.71 0.69 0.69 0.64 0.67 0.83 0.95 1.07 1.19 1.34 1.42 1.48 1.55 1.63 1.74
0.90 0.83 0.79 0.74 0.76 0.71 0.79 0.86 0.88 0.95 1.01 0.99 0.92 0.76 0.69 0.69 0.88 1.06 1.04 1.00 0.82 0.63 0.69 0.78 0.73 0.75 0.70 0.76 0.91 0.95 1.06 1.19 1.33 1.42 1.49 1.53 1.58 1.68
0.78 0.72 0.66 0.64 0.64 0.68 0.75 0.82 0.73 0.68 0.70 0.67 0.68 0.72 0.73 0.74 0.86 1.03 1.05 1.02 0.87 0.74 0.73 0.83 0.73 0.74 0.71 0.76 0.90 0.89 0.94 1.07 1.23 1.38 1.49 1.52 1.55 1.63
0.67 0.68 0.69 0.63 0.70 0.83 0.85 0.83 0.70 0.58 0.61 0.69 0.74 0.74 0.78 0.77 0.81 1.03 1.19 1.26 1.09 0.81 0.70 0.73 0.66 0.67 0.73 0.78 0.85 0.93 0.93 1.01 1.15 1.28 1.35 1.45 1.55 1.61
0.60 0.63 0.71 0.69 0.77 0.88 0.80 0.77 0.70 0.60 0.58 0.57 0.56 0.56 0.55 0.60 0.72 0.86 1.24 1.58 1.30 0.96 0.64 0.76 0.79 0.85 1.06 0.80 0.78 0.85 0.89 1.01 1.13 1.19 1.22 1.32 1.42 1.43
0.57 0.55 0.58 0.76 0.85 0.84 0.76 0.65 0.69 0.73 0.64 0.54 0.52 0.51 0.50 0.51 0.54 0.59 0.84 1.46 1.70 1.20 0.65 1.09 1.27 0.98 1.16 0.91 0.76 0.84 0.97 1.13 1.21 1.23 1.24 1.27 1.32 1.41
0.52 0.47 0.54 0.74 0.74 0.69 0.63 0.67 0.79 0.76 0.63 0.61 0.59 0.57 0.54 0.50 0.50 0.52 0.60 0.79 1.10 1.20 0.87 1.28 1.76 1.35 1.43 1.19 0.92 0.93 1.01 1.23 1.50 1.56 1.50 1.49 1.42 1.41
0.58 0.65 0.69 0.66 0.59 0.56 0.59 0.65 0.65 0.61 0.68 0.76 0.71 0.60 0.55 0.54 0.55 0.59 0.61 0.66 0.75 0.79 0.84 1.00 1.40 1.47 1.65 1.61 1.26 1.06 1.18 1.32 1.63 1.91 1.81 1.61 1.42 1.35
0.70 0.73 0.67 0.58 0.53 0.53 0.57 0.57 0.55 0.58 0.70 0.80 0.74 0.62 0.57 0.62 0.67 0.74 0.83 0.85 0.95 0.87 0.83 0.89 1.07 1.42 1.57 1.34 1.40 1.31 1.34 1.69 1.88 2.07 1.95 1.69 1.47 1.32
0.77 0.63 0.55 0.52 0.51 0.49 0.48 0.49 0.53 0.59 0.67 0.69 0.74 0.73 0.67 0.67 0.69 0.79 1.00 1.12 1.16 1.01 0.90 0.85 0.87 1.00 1.21 1.31 1.37 1.28 1.38 1.62 1.85 2.01 1.83 1.68 1.59 1.46
0.73 0.61 0.57 0.52 0.50 0.47 0.46 0.49 0.51 0.56 0.64 0.75 0.79 0.79 0.80 0.80 0.80 0.82 1.01 1.20 1.20 1.06 0.96 0.87 0.89 0.99 1.02 1.04 1.23 1.41 1.46 1.63 1.74 1.69 1.43 1.46 1.55 1.41
0.64 0.61 0.58 0.55 0.53 0.51 0.52 0.54 0.55 0.54 0.66 0.81 0.89 0.90 0.92 0.89 0.91 0.96 1.05 1.13 1.10 0.98 0.85 0.78 0.92 1.28 1.33 0.98 0.82 1.14 1.51 1.60 1.49 1.40 1.24 1.27 1.50 1.41
0.53 0.56 0.56 0.56 0.57 0.60 0.62 0.65 0.66 0.66 0.72 0.82 0.88 0.92 0.99 1.05 1.04 1.03 1.07 1.12 1.08 0.89 0.72 0.61 0.73 1.18 1.65 1.46 1.16 1.05 1.18 1.40 1.49 1.50 1.28 1.13 1.23 1.23
0.52 0.52 0.52 0.55 0.61 0.66 0.69 0.73 0.77 0.82 0.86 0.98 0.98 1.00 1.06 1.17 1.11 1.02 1.01 0.97 0.92 0.83 0.73 0.58 0.56 0.80 1.16 1.32 1.17 0.93 1.01 1.14 1.33 1.67 1.62 1.45 1.24 1.07
0.54 0.54 0.54 0.55 0.62 0.68 0.71 0.76 0.82 0.84 0.90 0.99 1.03 1.06 1.11 1.20 1.17 1.01 0.91 0.90 0.83 0.77 0.72 0.59 0.53 0.65 0.89 1.19 1.05 0.80 0.80 0.84 0.89 0.98 1.24 1.60 1.98 2.04
0.58 0.58 0.58 0.62 0.67 0.72 0.76 0.77 0.83 0.85 0.91 1.03 1.08 1.07 1.08 1.06 0.95 0.92 0.89 0.89 0.90 0.84 0.78 0.73 0.65 0.67 0.75 0.84 0.90 0.78 0.69 0.68 0.68 0.76 0.95 1.02 1.16 1.42